Kuchera_Ratio
0.0 0.0 0.0 0.0 0.0 0.0 0.0 0.0 0.0 0.0 0.0 0.0 0.0 0.0 0.0 0.0 0.0 0.0 0.0 0.0 0.0 1.7 1.1 1.7 2.1 2.8 3.1 2.3 2.3 0.3 0.5 0.3
0.0 0.0 0.0 0.0 0.0 0.0 0.0 0.0 0.0 0.0 0.0 0.0 0.0 0.0 0.0 0.0 0.0 0.0 0.0 0.0 0.1 0.7 2.1 2.3 2.6 4.3 2.5 0.7 0.7 1.7 1.7 0.0
0.0 0.0 0.0 0.0 0.0 0.0 0.0 0.0 0.0 0.0 0.0 0.0 0.0 0.0 0.0 0.0 0.0 0.0 0.0 0.1 1.3 0.0 3.0 3.6 3.5 2.9 2.3 2.3 1.9 3.9 2.3 1.1
0.0 0.0 0.0 0.0 0.0 0.0 0.0 0.0 0.0 0.0 0.0 0.0 0.0 0.0 0.0 0.3 2.3 1.5 0.0 0.4 1.6 1.9 2.9 4.0 4.6 1.9 3.7 2.9 2.3 4.1 6.1 2.5
0.0 0.0 0.0 0.0 0.0 0.0 0.0 0.0 0.0 0.0 0.0 0.0 0.0 0.5 2.5 2.4 3.1 3.1 1.9 1.2 2.5 2.1 3.3 4.1 2.7 2.8 4.1 3.7 1.3 3.1 3.9 6.9
0.0 0.0 0.0 0.0 0.0 0.0 0.0 0.0 0.0 0.0 0.0 0.0 0.0 0.0 0.3 1.9 3.5 4.4 5.3 3.4 2.4 3.1 3.7 4.9 1.9 4.7 4.5 3.5 3.3 4.1 4.1 5.5
0.0 0.0 0.0 0.0 0.0 0.0 0.0 0.0 0.0 0.0 0.0 0.0 0.0 0.0 0.9 2.7 4.2 5.5 6.7 6.3 4.5 4.6 3.7 5.1 4.3 5.4 5.5 4.3 3.7 3.7 4.7 5.7
0.0 0.0 0.0 0.0 0.0 0.0 0.0 0.0 0.0 0.0 0.0 0.0 0.0 0.0 0.8 3.0 4.4 5.9 7.8 7.3 7.1 7.1 5.5 5.6 6.1 5.7 5.3 4.3 4.1 4.1 5.5 6.5
0.0 0.0 0.0 0.0 0.0 0.0 0.0 0.0 0.0 0.0 0.0 0.0 0.0 0.0 0.7 2.6 4.0 5.5 7.5 8.3 8.5 6.1 6.0 5.5 5.7 5.7 5.9 4.1 4.3 5.5 5.5 5.9
0.0 0.0 0.0 0.0 0.0 0.0 0.0 0.0 0.0 0.0 0.0 0.0 0.0 0.0 0.7 1.8 3.7 4.5 6.5 6.8 3.5 5.6 6.5 5.9 5.1 4.8 4.5 4.3 5.3 7.1 6.1 6.5
0.0 0.0 0.0 0.0 0.0 0.0 0.0 0.0 0.0 0.0 0.0 0.0 0.0 0.4 0.9 1.5 2.6 4.7 5.6 6.2 6.4 7.3 6.9 6.8 4.3 4.1 4.3 4.7 5.7 5.7 7.3 8.1
0.0 0.0 0.0 0.0 0.0 0.0 0.0 0.0 0.0 0.0 0.0 0.0 0.1 0.6 1.0 1.6 2.2 3.9 4.4 5.2 6.3 6.7 7.2 7.7 5.9 5.5 4.5 5.5 5.1 6.1 8.5 8.9
0.0 0.0 0.0 0.0 0.0 0.0 0.0 0.0 0.0 0.0 0.0 0.0 0.2 0.6 1.0 1.9 2.5 3.3 3.5 5.7 5.6 6.6 8.3 9.3 8.3 6.1 4.7 5.7 6.3 6.9 10.1 10.7
0.0 0.0 0.0 0.0 0.0 0.0 0.0 0.0 0.0 0.0 0.0 0.0 0.2 0.7 1.2 2.2 2.8 3.9 3.1 5.0 7.1 8.4 9.4 10.5 9.7 8.3 5.7 3.9 5.5 7.1 9.5 10.1
0.0 0.0 0.0 0.0 0.0 0.0 0.0 0.0 0.0 0.0 0.0 0.0 0.4 0.9 1.6 2.2 2.7 4.1 4.4 4.5 8.5 9.3 9.9 9.8 9.3 7.7 4.9 4.9 6.1 8.1 9.1 9.7
0.0 0.0 0.0 0.0 0.0 0.0 0.0 0.0 0.0 0.0 0.0 0.0 0.5 1.0 1.5 2.0 2.8 4.2 4.7 6.2 7.5 8.7 10.5 9.9 8.9 6.7 4.3 6.9 8.5 9.5 9.5 9.5
0.0 0.0 0.0 0.0 0.0 0.0 0.0 0.0 0.0 0.0 0.0 0.0 0.3 1.2 1.8 2.4 2.8 4.4 6.1 8.4 9.7 10.1 11.5 11.7 10.5 6.5 3.7 4.1 6.9 10.7 10.3 9.9
0.0 0.0 0.0 0.0 0.0 0.0 0.0 0.0 0.0 0.0 0.0 0.0 0.7 1.5 2.3 2.9 3.2 4.5 6.7 9.2 10.6 12.3 12.2 12.2 11.7 8.1 3.9 4.7 5.5 10.1 11.3 10.9
0.0 0.0 0.0 0.0 0.0 0.0 0.0 0.0 0.0 0.0 0.0 0.7 0.9 2.1 2.7 3.2 3.8 5.2 7.0 9.6 11.9 12.3 12.4 12.5 12.4 7.7 4.3 4.9 6.7 9.6 10.9 10.1